Wind_Speed
2 2 1 1 2 2 2 2 2 3 3 3 4 4 4 4 4 5 7 7 7 7 7 7 8 8 7 7 7 6 6 5 6 6 7 7 7 7 7 7 6 6 5
2 2 2 2 2 2 3 3 4 4 4 4 4 5 5 6 7 7 8 8 8 8 9 9 9 9 9 9 8 8 8 7 7 7 7 8 8 8 7 7 7 6 6
2 2 3 2 2 2 3 4 4 5 5 5 5 6 7 7 8 8 8 9 9 9 9 9 9 10 10 9 10 9 9 8 8 8 8 8 8 8 7 7 7 7 7
3 3 3 3 3 3 4 4 5 5 6 6 6 7 7 7 7 8 9 9 9 9 9 10 10 10 10 10 10 10 9 9 9 9 9 9 9 8 8 8 8 7 7
4 4 4 4 4 4 4 5 5 6 6 7 6 6 6 7 6 7 8 8 9 9 9 10 10 10 10 11 10 10 10 10 10 10 10 10 10 9 9 8 8 8 8
5 5 5 5 5 5 5 5 6 6 7 6 6 6 6 7 7 6 6 7 8 8 9 10 11 11 11 11 11 11 11 11 11 11 11 11 11 11 10 10 9 9 9
6 6 6 6 6 6 6 6 7 7 7 7 6 7 6 6 6 7 7 7 8 9 10 11 11 11 12 12 12 12 11 11 11 11 12 12 12 12 11 11 11 10 10
6 6 7 6 7 7 7 7 7 7 7 7 8 8 7 6 6 6 7 8 8 9 10 11 11 11 11 12 12 11 11 11 11 12 13 13 13 12 11 11 11 11 11
5 6 6 7 7 7 7 7 7 7 7 8 8 8 8 7 7 7 7 8 9 9 9 9 9 10 10 11 10 11 11 11 11 12 12 13 13 12 11 11 11 12 12
6 6 6 6 6 7 7 7 7 7 7 7 7 8 8 8 8 7 7 8 9 9 10 10 9 10 10 10 10 11 11 11 11 12 12 12 12 12 12 12 12 12 12
4 5 5 5 5 5 6 6 6 7 7 7 7 8 8 8 8 8 8 8 9 9 9 10 10 10 11 11 11 11 11 11 11 11 11 11 11 11 12 12 12 12 12
3 3 4 4 5 5 5 6 6 7 7 7 7 8 8 8 8 9 9 9 9 10 10 10 10 11 12 12 12 11 11 11 11 12 12 11 12 12 12 12 12 12 12
2 3 4 5 5 5 5 6 6 7 7 7 7 7 8 9 9 8 8 8 9 10 10 10 11 11 12 11 11 11 12 12 11 11 12 12 12 13 13 13 12 12 12
3 4 4 5 5 5 5 5 5 6 6 7 7 7 8 8 9 8 8 8 8 9 10 10 10 11 12 12 12 11 12 12 11 11 12 13 13 13 14 14 14 14 13
3 4 4 4 5 5 5 5 5 5 6 7 7 7 7 7 8 8 8 8 9 9 9 8 9 10 11 11 12 12 12 12 11 12 12 13 14 14 14 14 14 14 14
5 4 5 5 5 5 5 5 5 5 6 6 7 7 7 7 7 8 8 9 9 9 9 8 8 9 10 10 11 12 12 13 12 12 13 13 14 14 14 14 14 14 14
6 5 6 5 5 5 5 5 6 6 6 7 7 6 6 7 7 7 8 9 9 8 8 8 8 9 10 11 11 12 13 13 12 12 12 12 13 13 14 14 14 15 15
5 5 6 5 5 6 5 6 6 7 7 7 7 7 6 6 7 7 8 8 8 8 9 9 8 10 10 10 11 11 12 12 12 12 12 12 12 12 13 13 14 14 15
6 6 6 6 6 6 6 7 7 7 8 7 7 7 7 7 7 8 9 9 9 9 9 9 9 10 10 11 11 11 11 11 11 12 12 12 12 12 12 12 12 12 13
7 7 6 6 7 7 7 7 7 8 8 8 8 8 8 8 8 9 9 9 9 9 9 10 10 10 10 11 11 11 11 12 12 12 12 12 11 11 11 12 12 12 13
8 8 8 7 7 7 8 8 8 8 9 9 9 9 9 9 8 9 9 9 9 9 9 10 9 9 10 11 11 12 11 11 11 12 12 11 11 11 12 12 12 12 13
9 9 9 9 9 8 9 9 9 9 9 10 10 10 10 10 9 9 10 9 9 9 9 9 9 9 10 10 11 11 11 11 11 11 11 11 12 12 12 12 12 12 12
10 11 10 10 10 10 10 10 10 10 11 11 11 11 10 10 10 10 10 10 9 9 9 9 9 9 9 9 10 11 11 12 12 12 12 12 12 13 12 12 13 13 13
11 11 11 11 12 12 12 12 11 12 12 12 12 11 11 11 10 11 11 10 10 10 10 10 9 9 10 10 10 11 11 12 11 12 12 12 13 13 13 12 12 12 12
12 12 13 12 13 13 13 13 13 13 13 13 13 13 12 12 12 12 11 11 11 11 11 11 11 10 11 11 11 11 12 12 12 13 12 13 14 14 14 13 13 13 13
13 14 14 14 14 14 15 15 14 14 14 14 13 14 13 13 13 13 13 13 13 12 12 13 12 12 12 12 12 12 12 12 13 13 13 14 14 14 14 14 14 13 13
Wind_Direction
280 290 277 283 279 281 285 287 293 298 305 301 298 291 282 270 267 257 252 247 243 238 232 230 229 228 228 228 226 228 231 229 222 215 209 204 199 200 204 207 212 212 211
279 299 303 290 278 276 279 280 287 293 296 292 293 291 284 276 273 263 254 250 247 241 236 237 236 234 233 231 231 232 233 234 226 219 216 213 205 203 207 213 218 220 221
283 311 310 302 285 280 283 283 290 294 294 293 290 288 287 279 274 266 258 252 247 243 238 238 238 236 234 234 234 235 237 236 228 223 220 215 211 207 211 219 223 223 227
278 291 307 305 295 288 287 284 287 290 292 294 291 288 285 281 277 273 259 249 248 244 240 240 238 237 235 235 236 237 238 234 227 222 222 221 217 214 217 220 223 227 236
280 283 291 296 294 288 287 289 291 288 288 289 291 288 283 283 280 278 266 251 244 244 242 243 241 240 239 237 236 237 238 235 228 227 227 224 224 225 225 226 227 232 238
284 286 289 295 292 291 288 287 292 292 290 290 289 287 286 283 280 275 263 251 250 247 246 247 246 245 242 239 238 237 235 235 236 233 228 226 230 231 230 230 232 235 236
292 293 292 295 294 289 288 289 289 290 287 287 290 288 285 283 278 271 267 261 257 253 250 249 246 247 244 241 239 237 235 235 237 232 225 226 229 233 234 232 236 239 239
295 294 292 289 291 290 288 288 289 288 287 286 287 290 286 284 281 273 267 263 259 254 252 249 246 245 244 242 240 239 233 233 233 231 228 229 231 233 234 237 240 243 241
291 289 289 286 286 288 288 290 292 290 289 289 290 289 288 283 279 272 268 264 262 255 246 247 246 246 244 240 237 236 235 233 234 233 229 228 229 232 237 241 243 244 242
295 292 287 287 288 288 289 289 292 295 292 290 291 289 288 285 279 278 271 268 265 260 256 255 254 247 246 243 238 238 237 235 235 233 229 226 229 234 238 241 242 242 243
299 293 291 291 293 293 292 291 293 297 295 291 289 288 284 281 279 278 276 276 272 265 261 258 252 243 241 241 240 239 237 236 234 229 227 230 233 236 239 241 244 245 245
295 292 295 300 302 301 296 293 293 298 300 297 292 288 284 281 282 280 276 276 272 269 266 262 258 249 243 241 239 239 237 234 232 230 232 234 237 238 239 241 244 247 247
307 300 296 297 297 296 295 293 294 299 300 299 295 291 289 285 285 283 278 273 268 269 266 265 263 254 243 239 239 241 240 236 235 235 234 236 240 241 241 242 244 246 250
317 313 302 297 301 301 298 297 301 304 303 301 300 295 292 291 286 283 279 278 272 271 269 265 257 248 244 241 240 241 241 240 238 238 239 240 242 243 242 245 248 251 254
326 316 312 309 309 299 300 305 310 312 310 308 307 304 300 294 287 283 281 277 276 272 270 265 253 246 245 244 241 240 242 246 242 238 242 243 243 244 245 247 248 248 250
327 320 333 331 326 309 305 305 315 319 317 310 306 306 302 297 290 287 281 278 274 272 269 266 257 249 246 246 243 242 244 249 248 247 246 246 247 247 246 247 248 249 248
322 321 329 331 329 324 315 308 309 311 314 314 312 306 302 298 295 290 286 278 271 270 266 262 256 246 247 246 246 246 246 249 249 249 249 248 249 248 246 247 246 247 249
313 316 321 322 322 322 313 306 307 311 312 314 312 309 307 301 300 297 290 283 274 271 270 264 256 251 249 249 248 246 247 248 249 249 250 251 252 251 248 248 248 247 246
305 311 312 311 313 317 313 307 310 311 311 310 308 306 305 305 302 298 292 288 282 275 271 264 260 257 254 253 251 251 251 250 251 250 250 249 250 251 249 250 251 250 247
300 305 304 303 305 307 308 307 306 309 312 309 305 305 306 304 302 298 299 297 290 282 274 267 265 261 258 255 253 253 253 252 251 250 249 247 247 248 251 252 253 253 250
303 303 301 300 301 302 305 306 305 304 305 305 304 305 305 304 302 298 297 297 293 289 281 272 270 266 262 260 256 255 255 252 250 249 246 245 246 248 249 249 251 250 248
301 300 298 296 297 298 301 304 303 301 300 299 299 299 299 300 300 299 297 292 289 289 286 277 276 275 271 265 258 253 252 251 249 247 246 248 249 248 248 248 249 248 249
298 297 296 293 294 295 297 298 298 297 298 297 295 295 296 295 295 294 294 291 289 286 282 279 278 275 269 267 263 257 252 247 246 250 251 252 253 251 251 250 247 246 248
295 294 293 291 292 293 295 295 295 296 298 297 294 294 293 291 291 292 291 288 287 285 280 279 277 273 269 267 262 258 254 250 248 252 253 254 254 253 253 252 251 250 249
292 291 289 289 289 290 292 292 293 294 296 296 294 293 291 289 288 287 287 283 282 283 279 278 278 274 272 269 265 258 253 251 252 252 250 252 253 253 253 253 252 252 249
288 289 289 287 287 287 288 290 291 292 292 293 293 291 289 288 287 285 285 282 279 279 278 278 277 273 272 269 264 259 253 252 253 252 251 251 251 251 251 252 253 252 249
Height
5868 5867 5867 5867 5866 5866 5866 5866 5866 5866 5866 5865 5865 5865 5864 5864 5864 5863 5863 5863 5863 5863 5863 5864 5865 5865 5866 5866 5867 5867 5868 5868 5868 5868 5869 5869 5870 5870 5871 5872 5872 5873 5873
5867 5866 5866 5866 5866 5866 5866 5866 5866 5865 5865 5865 5864 5864 5863 5863 5862 5861 5861 5861 5861 5862 5862 5863 5863 5864 5865 5865 5866 5866 5867 5867 5867 5867 5868 5868 5869 5870 5870 5871 5872 5872 5872
5866 5866 5865 5865 5865 5865 5865 5865 5865 5864 5864 5863 5863 5862 5861 5861 5860 5858 5858 5858 5859 5860 5861 5861 5862 5863 5863 5864 5864 5865 5865 5865 5866 5866 5866 5867 5868 5868 5869 5870 5870 5871 5871
5865 5865 5865 5865 5864 5864 5864 5864 5864 5863 5863 5862 5862 5861 5860 5859 5857 5854 5853 5855 5857 5858 5859 5860 5861 5861 5862 5862 5863 5863 5864 5864 5864 5864 5865 5866 5867 5868 5868 5869 5869 5870 5870
5864 5864 5864 5863 5863 5863 5863 5863 5863 5862 5862 5861 5860 5860 5859 5857 5855 5853 5851 5853 5855 5857 5858 5858 5859 5860 5860 5861 5861 5861 5862 5862 5862 5863 5864 5865 5866 5866 5867 5868 5868 5868 5869
5862 5862 5862 5862 5862 5862 5862 5862 5861 5861 5860 5860 5859 5858 5857 5856 5855 5854 5853 5853 5854 5855 5856 5857 5857 5858 5858 5859 5859 5860 5860 5860 5860 5861 5862 5863 5864 5865 5866 5866 5867 5867 5867
5861 5861 5861 5861 5861 5861 5860 5860 5860 5860 5859 5858 5858 5857 5856 5855 5854 5854 5853 5853 5854 5854 5854 5855 5855 5856 5856 5857 5857 5858 5858 5858 5858 5858 5859 5860 5862 5863 5864 5864 5865 5865 5866
5860 5859 5859 5859 5859 5859 5859 5859 5858 5858 5857 5857 5856 5855 5855 5854 5853 5853 5852 5852 5852 5852 5852 5852 5853 5853 5854 5854 5855 5856 5856 5857 5857 5857 5857 5858 5860 5861 5862 5862 5863 5863 5864
5858 5858 5858 5858 5857 5857 5857 5857 5856 5856 5855 5855 5854 5854 5853 5852 5852 5851 5851 5850 5850 5850 5850 5850 5851 5852 5852 5852 5853 5853 5854 5855 5855 5855 5856 5857 5858 5859 5860 5860 5861 5861 5862
5857 5856 5856 5856 5856 5856 5855 5855 5854 5854 5854 5853 5853 5852 5851 5851 5850 5849 5849 5848 5848 5848 5847 5848 5849 5849 5850 5850 5850 5851 5852 5853 5853 5854 5854 5855 5856 5857 5858 5858 5859 5859 5860
5856 5855 5855 5855 5854 5854 5854 5853 5853 5852 5852 5851 5851 5850 5849 5849 5848 5847 5847 5846 5846 5846 5846 5846 5846 5846 5847 5847 5848 5849 5850 5850 5851 5852 5853 5853 5854 5855 5855 5856 5857 5857 5858
5855 5854 5854 5853 5853 5852 5852 5852 5851 5851 5850 5849 5849 5848 5848 5847 5846 5845 5845 5844 5844 5843 5843 5843 5843 5843 5844 5845 5845 5846 5847 5848 5849 5850 5851 5851 5852 5853 5853 5854 5854 5855 5855
5854 5853 5853 5852 5851 5851 5851 5850 5850 5849 5848 5848 5847 5846 5846 5845 5844 5844 5843 5843 5842 5841 5841 5840 5840 5840 5840 5841 5843 5844 5845 5846 5847 5847 5848 5849 5850 5850 5851 5851 5852 5852 5853
5853 5852 5852 5851 5850 5849 5849 5848 5848 5847 5847 5846 5845 5844 5844 5843 5842 5841 5841 5840 5840 5839 5838 5837 5837 5836 5836 5838 5840 5841 5842 5843 5844 5844 5845 5846 5847 5847 5848 5849 5849 5849 5850
5852 5851 5850 5850 5849 5848 5847 5847 5846 5846 5845 5844 5843 5842 5841 5841 5840 5839 5839 5838 5838 5837 5836 5835 5834 5834 5834 5836 5837 5839 5840 5841 5841 5842 5843 5843 5844 5844 5845 5845 5846 5846 5847
5850 5850 5849 5848 5848 5847 5846 5845 5845 5844 5843 5842 5841 5840 5840 5839 5838 5837 5837 5836 5836 5835 5834 5833 5833 5833 5833 5834 5835 5836 5837 5838 5838 5839 5840 5840 5841 5841 5842 5842 5843 5843 5843
5849 5848 5848 5847 5846 5846 5845 5844 5843 5843 5841 5840 5839 5838 5838 5837 5836 5836 5835 5834 5833 5833 5832 5832 5831 5832 5832 5833 5833 5834 5834 5835 5835 5836 5836 5837 5837 5838 5838 5839 5839 5840 5840
5848 5847 5846 5846 5845 5844 5843 5842 5842 5841 5840 5839 5838 5837 5836 5835 5834 5834 5833 5832 5831 5831 5830 5830 5830 5830 5830 5831 5831 5831 5832 5832 5833 5833 5834 5834 5834 5834 5835 5835 5836 5836 5836
5846 5846 5845 5844 5843 5843 5842 5841 5840 5839 5838 5837 5836 5835 5834 5833 5833 5832 5831 5830 5829 5829 5828 5828 5828 5828 5828 5828 5828 5829 5829 5830 5830 5831 5831 5831 5831 5831 5832 5832 5832 5833 5833
5845 5844 5843 5843 5842 5841 5840 5839 5838 5837 5836 5835 5834 5833 5832 5831 5831 5830 5829 5828 5827 5826 5826 5826 5826 5826 5826 5826 5826 5826 5826 5827 5827 5828 5828 5828 5828 5828 5829 5829 5829 5830 5830
5842 5842 5841 5841 5840 5839 5838 5837 5836 5835 5834 5833 5832 5831 5830 5829 5828 5828 5827 5826 5825 5824 5823 5823 5823 5823 5823 5823 5823 5823 5823 5824 5825 5825 5825 5825 5826 5826 5826 5826 5827 5827 5827
5840 5839 5838 5838 5837 5837 5836 5835 5834 5833 5832 5831 5830 5829 5828 5827 5826 5825 5824 5823 5822 5822 5821 5821 5821 5820 5820 5820 5821 5821 5821 5822 5822 5822 5823 5823 5823 5823 5823 5824 5824 5824 5824
5837 5836 5836 5835 5834 5834 5833 5832 5831 5830 5829 5828 5827 5826 5825 5824 5823 5822 5821 5820 5820 5819 5819 5818 5818 5818 5818 5818 5818 5818 5818 5819 5819 5820 5820 5820 5820 5820 5821 5821 5821 5821 5822
5834 5833 5832 5832 5831 5830 5830 5829 5828 5827 5826 5825 5824 5823 5823 5822 5821 5820 5819 5818 5817 5817 5816 5816 5816 5815 5815 5815 5815 5815 5816 5816 5816 5817 5817 5817 5817 5817 5818 5818 5818 5818 5819
5831 5830 5829 5829 5828 5827 5826 5826 5825 5824 5823 5822 5821 5820 5819 5818 5818 5817 5816 5815 5814 5814 5814 5813 5813 5813 5812 5812 5812 5812 5812 5813 5813 5814 5814 5814 5814 5814 5814 5815 5815 5815 5816
5828 5827 5826 5825 5824 5823 5823 5822 5821 5820 5819 5818 5817 5816 5816 5815 5814 5813 5813 5812 5811 5811 5810 5810 5810 5809 5809 5809 5809 5809 5809 5809 5810 5810 5810 5811 5811 5811 5811 5812 5812 5812 5812